Year,Month,Day,Hour,Minute,Value (Times are PST for temperature in C)
2016,12,13,00,00,-1.30
2016,12,13,00,01,-1.30
2016,12,13,00,02,-1.30
2016,12,13,00,03,-1.30
2016,12,13,00,04,-1.30
2016,12,13,00,05,-1.30
2016,12,13,00,06,-1.30
2016,12,13,00,07,-1.30
2016,12,13,00,08,-1.30
2016,12,13,00,09,-1.30
2016,12,13,00,10,-1.20
2016,12,13,00,11,-1.20
2016,12,13,00,12,-1.20
2016,12,13,00,13,-1.20
2016,12,13,00,14,-1.20
2016,12,13,00,15,-1.20
2016,12,13,00,16,-1.20
2016,12,13,00,17,-1.20
2016,12,13,00,18,-1.20
2016,12,13,00,19,-1.20
2016,12,13,00,20,-1.20
2016,12,13,00,21,-1.20
2016,12,13,00,22,-1.20
2016,12,13,00,23,-1.20
2016,12,13,00,24,-1.20
2016,12,13,00,25,-1.20
2016,12,13,00,26,-1.20
2016,12,13,00,27,-1.20
2016,12,13,00,28,-1.20
2016,12,13,00,29,-1.10
2016,12,13,00,30,-1.10
2016,12,13,00,31,-1.10
2016,12,13,00,32,-1.10
2016,12,13,00,33,-1.10
2016,12,13,00,34,-1.10
2016,12,13,00,35,-1.10
2016,12,13,00,36,-1.10
2016,12,13,00,37,-1.10
2016,12,13,00,38,-1.10
2016,12,13,00,39,-1.10
2016,12,13,00,40,-1.10
2016,12,13,00,41,-1.10
2016,12,13,00,42,-1.00
2016,12,13,00,43,-1.00
2016,12,13,00,44,-1.00
2016,12,13,00,45,-1.00
2016,12,13,00,46,-1.00
2016,12,13,00,47,-1.10
2016,12,13,00,48,-1.10
2016,12,13,00,49,-1.10
2016,12,13,00,50,-1.10
2016,12,13,00,51,-1.10
2016,12,13,00,52,-1.10
2016,12,13,00,53,-1.10
2016,12,13,00,54,-1.10
2016,12,13,00,55,-1.10
2016,12,13,00,56,-1.10
2016,12,13,00,57,-1.10
2016,12,13,00,58,-1.00
2016,12,13,00,59,-1.10
2016,12,13,01,00,-1.00
2016,12,13,01,01,-1.00
2016,12,13,01,02,-1.10
2016,12,13,01,03,-1.00
2016,12,13,01,04,-1.00
2016,12,13,01,05,-1.00
2016,12,13,01,06,-1.00
2016,12,13,01,07,-1.00
2016,12,13,01,08,-1.00
2016,12,13,01,09,-1.00
2016,12,13,01,10,-1.10
2016,12,13,01,11,-1.00
2016,12,13,01,12,-1.00
2016,12,13,01,13,-1.00
2016,12,13,01,14,-1.00
2016,12,13,01,15,-1.00
2016,12,13,01,16,-1.10
2016,12,13,01,17,-1.10
2016,12,13,01,18,-1.10
2016,12,13,01,19,-1.10
2016,12,13,01,20,-1.00
2016,12,13,01,21,-1.00
2016,12,13,01,22,-1.10
2016,12,13,01,23,-1.00
2016,12,13,01,24,-1.10
2016,12,13,01,25,-1.00
2016,12,13,01,26,-1.10
2016,12,13,01,27,-1.10
2016,12,13,01,28,-1.00
2016,12,13,01,29,-1.00
2016,12,13,01,30,-1.00
2016,12,13,01,31,-1.00
2016,12,13,01,32,-1.00
2016,12,13,01,33,-1.10
2016,12,13,01,34,-1.10
2016,12,13,01,35,-1.10
2016,12,13,01,36,-1.00
2016,12,13,01,37,-1.00
2016,12,13,01,38,-1.10
2016,12,13,01,39,-1.10
2016,12,13,01,40,-1.10
2016,12,13,01,41,-1.10
2016,12,13,01,42,-1.10
2016,12,13,01,43,-1.10
2016,12,13,01,44,-1.10
2016,12,13,01,45,-1.10
2016,12,13,01,46,-1.10
2016,12,13,01,47,-1.10
2016,12,13,01,48,-1.10
2016,12,13,01,49,-1.10
2016,12,13,01,50,-1.10
2016,12,13,01,51,-1.10
2016,12,13,01,52,-1.10
2016,12,13,01,53,-1.10
2016,12,13,01,54,-1.10
2016,12,13,01,55,-1.10
2016,12,13,01,56,-1.10
2016,12,13,01,57,-1.10
2016,12,13,01,58,-1.10
2016,12,13,01,59,-1.10
2016,12,13,02,00,-1.10
2016,12,13,02,01,-1.10
2016,12,13,02,02,-1.10
2016,12,13,02,03,-1.10
2016,12,13,02,04,-1.20
2016,12,13,02,05,-1.20
2016,12,13,02,06,-1.20
2016,12,13,02,07,-1.20
2016,12,13,02,08,-1.20
2016,12,13,02,09,-1.20
2016,12,13,02,10,-1.20
2016,12,13,02,11,-1.20
2016,12,13,02,12,-1.20
2016,12,13,02,13,-1.20
2016,12,13,02,14,-1.20
2016,12,13,02,15,-1.20
2016,12,13,02,16,-1.20
2016,12,13,02,17,-1.20
2016,12,13,02,18,-1.20
2016,12,13,02,19,-1.20
2016,12,13,02,20,-1.20
2016,12,13,02,21,-1.20
2016,12,13,02,22,-1.20
2016,12,13,02,23,-1.20
2016,12,13,02,24,-1.20
2016,12,13,02,25,-1.20
2016,12,13,02,26,-1.20
2016,12,13,02,27,-1.30
2016,12,13,02,28,-1.30
2016,12,13,02,29,-1.30
2016,12,13,02,30,-1.30
2016,12,13,02,31,-1.30
2016,12,13,02,32,-1.30
2016,12,13,02,33,-1.30
2016,12,13,02,34,-1.30
2016,12,13,02,35,-1.30
2016,12,13,02,36,-1.30
2016,12,13,02,37,-1.30
2016,12,13,02,38,-1.30
2016,12,13,02,39,-1.30
2016,12,13,02,40,-1.30
2016,12,13,02,41,-1.30
2016,12,13,02,42,-1.30
2016,12,13,02,43,-1.40
2016,12,13,02,44,-1.40
2016,12,13,02,45,-1.40
2016,12,13,02,46,-1.40
2016,12,13,02,47,-1.40
2016,12,13,02,48,-1.40
2016,12,13,02,49,-1.40
2016,12,13,02,50,-1.40
2016,12,13,02,51,-1.40
2016,12,13,02,52,-1.40
2016,12,13,02,53,-1.40
2016,12,13,02,54,-1.40
2016,12,13,02,55,-1.40
2016,12,13,02,56,-1.40
2016,12,13,02,57,-1.40
2016,12,13,02,58,-1.40
2016,12,13,02,59,-1.40
2016,12,13,03,00,-1.40
2016,12,13,03,01,-1.30
2016,12,13,03,02,-1.30
2016,12,13,03,03,-1.30
2016,12,13,03,04,-1.30
2016,12,13,03,05,-1.30
2016,12,13,03,06,-1.30
2016,12,13,03,07,-1.30
2016,12,13,03,08,-1.30
2016,12,13,03,09,-1.30
2016,12,13,03,10,-1.30
2016,12,13,03,11,-1.20
2016,12,13,03,12,-1.20
2016,12,13,03,13,-1.20
2016,12,13,03,14,-1.20
2016,12,13,03,15,-1.20
2016,12,13,03,16,-1.20
2016,12,13,03,17,-1.20
2016,12,13,03,18,-1.20
2016,12,13,03,19,-1.20
2016,12,13,03,20,-1.20
2016,12,13,03,21,-1.20
2016,12,13,03,22,-1.20
2016,12,13,03,23,-1.20
2016,12,13,03,24,-1.20
2016,12,13,03,25,-1.20
2016,12,13,03,26,-1.20
2016,12,13,03,27,-1.20
2016,12,13,03,28,-1.20
2016,12,13,03,29,-1.20
2016,12,13,03,30,-1.20
2016,12,13,03,31,-1.20
2016,12,13,03,32,-1.20
2016,12,13,03,33,-1.20
2016,12,13,03,34,-1.20
2016,12,13,03,35,-1.20
2016,12,13,03,36,-1.20
2016,12,13,03,37,-1.20
2016,12,13,03,38,-1.20
2016,12,13,03,39,-1.20
2016,12,13,03,40,-1.20
2016,12,13,03,41,-1.20
2016,12,13,03,42,-1.10
2016,12,13,03,43,-1.20
2016,12,13,03,44,-1.20
2016,12,13,03,45,-1.20
2016,12,13,03,46,-1.20
2016,12,13,03,47,-1.20
2016,12,13,03,48,-1.20
2016,12,13,03,49,-1.20
2016,12,13,03,50,-1.20
2016,12,13,03,51,-1.20
2016,12,13,03,52,-1.20
2016,12,13,03,53,-1.20
2016,12,13,03,54,-1.20
2016,12,13,03,55,-1.20
2016,12,13,03,56,-1.10
2016,12,13,03,57,-1.20
2016,12,13,03,58,-1.10
2016,12,13,03,59,-1.10
2016,12,13,04,00,-1.10
2016,12,13,04,01,-1.10
2016,12,13,04,02,-1.10
2016,12,13,04,03,-1.10
2016,12,13,04,04,-1.10
2016,12,13,04,05,-1.10
2016,12,13,04,06,-1.10
2016,12,13,04,07,-1.10
2016,12,13,04,08,-1.10
2016,12,13,04,09,-1.10
2016,12,13,04,10,-1.10
2016,12,13,04,11,-1.10
2016,12,13,04,12,-1.10
2016,12,13,04,13,-1.10
2016,12,13,04,14,-1.10
2016,12,13,04,15,-1.10
2016,12,13,04,16,-1.10
2016,12,13,04,17,-1.10
2016,12,13,04,18,-1.10
2016,12,13,04,19,-1.10
2016,12,13,04,20,-1.10
2016,12,13,04,21,-1.10
2016,12,13,04,22,-1.10
2016,12,13,04,23,-1.10
2016,12,13,04,24,-1.10
2016,12,13,04,25,-1.10
2016,12,13,04,26,-1.10
2016,12,13,04,27,-1.10
2016,12,13,04,28,-1.10
2016,12,13,04,29,-1.10
2016,12,13,04,30,-1.10
2016,12,13,04,31,-1.10
2016,12,13,04,32,-1.10
2016,12,13,04,33,-1.00
2016,12,13,04,34,-1.00
2016,12,13,04,35,-1.00
2016,12,13,04,36,-1.00
2016,12,13,04,37,-1.00
2016,12,13,04,38,-1.00
2016,12,13,04,39,-1.00
2016,12,13,04,40,-1.00
2016,12,13,04,41,-1.00
2016,12,13,04,42,-1.00
2016,12,13,04,43,-1.00
2016,12,13,04,44,-0.90
2016,12,13,04,45,-0.90
2016,12,13,04,46,-0.90
2016,12,13,04,47,-0.90
2016,12,13,04,48,-0.90
2016,12,13,04,49,-0.90
2016,12,13,04,50,-0.90
2016,12,13,04,51,-0.80
2016,12,13,04,52,-0.80
2016,12,13,04,53,-0.80
2016,12,13,04,54,-0.80
2016,12,13,04,55,-0.80
2016,12,13,04,56,-0.80
2016,12,13,04,57,-0.80
2016,12,13,04,58,-0.70
2016,12,13,04,59,-0.70
2016,12,13,05,00,-0.70
2016,12,13,05,01,-0.70
2016,12,13,05,02,-0.60
2016,12,13,05,03,-0.60
2016,12,13,05,04,-0.60
2016,12,13,05,05,-0.60
2016,12,13,05,06,-0.60
2016,12,13,05,07,-0.60
2016,12,13,05,08,-0.60
2016,12,13,05,09,-0.60
2016,12,13,05,10,-0.60
2016,12,13,05,11,-0.60
2016,12,13,05,12,-0.50
2016,12,13,05,13,-0.60
2016,12,13,05,14,-0.60
2016,12,13,05,15,-0.50
2016,12,13,05,16,-0.50
2016,12,13,05,17,-0.50
2016,12,13,05,18,-0.50
2016,12,13,05,19,-0.60
2016,12,13,05,20,-0.60
2016,12,13,05,21,-0.60
2016,12,13,05,22,-0.60
2016,12,13,05,23,-0.70
2016,12,13,05,24,-0.70
2016,12,13,05,25,-0.70
2016,12,13,05,26,-0.70
2016,12,13,05,27,-0.70
2016,12,13,05,28,-0.70
2016,12,13,05,29,-0.70
2016,12,13,05,30,-0.70
2016,12,13,05,31,-0.70
2016,12,13,05,32,-0.70
2016,12,13,05,33,-0.70
2016,12,13,05,34,-0.80
2016,12,13,05,35,-0.80
2016,12,13,05,36,-0.80
2016,12,13,05,37,-0.80
2016,12,13,05,38,-0.80
2016,12,13,05,39,-0.80
2016,12,13,05,40,-0.80
2016,12,13,05,41,-0.80
2016,12,13,05,42,-0.80
2016,12,13,05,43,-0.80
2016,12,13,05,44,-0.80
2016,12,13,05,45,-0.80
2016,12,13,05,46,-0.80
2016,12,13,05,47,-0.90
2016,12,13,05,48,-0.90
2016,12,13,05,49,-0.90
2016,12,13,05,50,-0.90
2016,12,13,05,51,-0.90
2016,12,13,05,52,-0.90
2016,12,13,05,53,-0.90
2016,12,13,05,54,-0.90
2016,12,13,05,55,-0.90
2016,12,13,05,56,-0.90
2016,12,13,05,57,-0.90
2016,12,13,05,58,-0.90
2016,12,13,05,59,-0.90
2016,12,13,06,00,-0.90
2016,12,13,06,01,-0.90
2016,12,13,06,02,-0.90
2016,12,13,06,03,-0.90
2016,12,13,06,04,-0.90
2016,12,13,06,05,-0.90
2016,12,13,06,06,-0.90
2016,12,13,06,07,-0.90
2016,12,13,06,08,-0.90
2016,12,13,06,09,-0.90
2016,12,13,06,10,-0.90
2016,12,13,06,11,-0.90
2016,12,13,06,12,-0.90
2016,12,13,06,13,-0.90
2016,12,13,06,14,-0.90
2016,12,13,06,15,-0.90
2016,12,13,06,16,-0.90
2016,12,13,06,17,-0.90
2016,12,13,06,18,-0.90
2016,12,13,06,19,-0.90
2016,12,13,06,20,-1.00
2016,12,13,06,21,-1.00
2016,12,13,06,22,-1.00
2016,12,13,06,23,-1.00
2016,12,13,06,24,-1.00
2016,12,13,06,25,-1.00
2016,12,13,06,26,-1.00
2016,12,13,06,27,-1.00
2016,12,13,06,28,-1.00
2016,12,13,06,29,-1.00
2016,12,13,06,30,-1.00
2016,12,13,06,31,-1.00
2016,12,13,06,32,-1.00
2016,12,13,06,33,-1.00
2016,12,13,06,34,-1.00
2016,12,13,06,35,-1.00
2016,12,13,06,36,-1.00
2016,12,13,06,37,-1.00
2016,12,13,06,38,-1.00
2016,12,13,06,39,-1.00
2016,12,13,06,40,-1.00
2016,12,13,06,41,-1.00
2016,12,13,06,42,-1.00
2016,12,13,06,43,-1.00
2016,12,13,06,44,-1.00
2016,12,13,06,45,-1.00
2016,12,13,06,46,-1.00
2016,12,13,06,47,-1.00
2016,12,13,06,48,-1.00
2016,12,13,06,49,-1.00
2016,12,13,06,50,-1.00
2016,12,13,06,51,-1.10
2016,12,13,06,52,-1.10
2016,12,13,06,53,-1.10
2016,12,13,06,54,-1.10
2016,12,13,06,55,-1.10
2016,12,13,06,56,-1.10
2016,12,13,06,57,-1.10
2016,12,13,06,58,-1.10
2016,12,13,06,59,-1.10
2016,12,13,07,00,-1.10
2016,12,13,07,01,-1.10
2016,12,13,07,02,-1.10
2016,12,13,07,03,-1.10
2016,12,13,07,04,-1.10
2016,12,13,07,05,-1.10
2016,12,13,07,06,-1.10
2016,12,13,07,07,-1.10
2016,12,13,07,08,-1.10
2016,12,13,07,09,-1.10
2016,12,13,07,10,-1.10
2016,12,13,07,11,-1.10
2016,12,13,07,12,-1.10
2016,12,13,07,13,-1.10
2016,12,13,07,14,-1.10
2016,12,13,07,15,-1.10
2016,12,13,07,16,-1.10
2016,12,13,07,17,-1.10
2016,12,13,07,18,-1.10
2016,12,13,07,19,-1.10
2016,12,13,07,20,-1.10
2016,12,13,07,21,-1.10
2016,12,13,07,22,-1.10
2016,12,13,07,23,-1.10
2016,12,13,07,24,-1.10
2016,12,13,07,25,-1.10
2016,12,13,07,26,-1.10
2016,12,13,07,27,-1.10
2016,12,13,07,28,-1.10
2016,12,13,07,29,-1.10
2016,12,13,07,30,-1.10
2016,12,13,07,31,-1.10
2016,12,13,07,32,-1.10
2016,12,13,07,33,-1.10
2016,12,13,07,34,-1.10
2016,12,13,07,35,-1.10
2016,12,13,07,36,-1.10
2016,12,13,07,37,-1.10
2016,12,13,07,38,-1.10
2016,12,13,07,39,-1.10
2016,12,13,07,40,-1.10
2016,12,13,07,41,-1.10
2016,12,13,07,42,-1.00
2016,12,13,07,43,-1.00
2016,12,13,07,44,-1.00
2016,12,13,07,45,-0.90
2016,12,13,07,46,-0.90
2016,12,13,07,47,-0.90
2016,12,13,07,48,-0.90
2016,12,13,07,49,-0.90
2016,12,13,07,50,-0.80
2016,12,13,07,51,-0.80
2016,12,13,07,52,-0.80
2016,12,13,07,53,-0.80
2016,12,13,07,54,-0.70
2016,12,13,07,55,-0.70
2016,12,13,07,56,-0.70
2016,12,13,07,57,-0.70
2016,12,13,07,58,-0.60
2016,12,13,07,59,-0.60
2016,12,13,08,00,-0.60
2016,12,13,08,01,-0.60
2016,12,13,08,02,-0.60
2016,12,13,08,03,-0.60
2016,12,13,08,04,-0.60
2016,12,13,08,05,-0.50
2016,12,13,08,06,-0.50
2016,12,13,08,07,-0.50
2016,12,13,08,08,-0.50
2016,12,13,08,09,-0.50
2016,12,13,08,10,-0.50
2016,12,13,08,11,-0.50
2016,12,13,08,12,-0.50
2016,12,13,08,13,-0.50
2016,12,13,08,14,-0.40
2016,12,13,08,15,-0.40
2016,12,13,08,16,-0.40
2016,12,13,08,17,-0.40
2016,12,13,08,18,-0.40
2016,12,13,08,19,-0.40
2016,12,13,08,20,-0.40
2016,12,13,08,21,-0.40
2016,12,13,08,22,-0.40
2016,12,13,08,23,-0.40
2016,12,13,08,24,-0.40
2016,12,13,08,25,-0.40
2016,12,13,08,26,-0.40
2016,12,13,08,27,-0.40
2016,12,13,08,28,-0.40
2016,12,13,08,29,-0.40
2016,12,13,08,30,-0.40
2016,12,13,08,31,-0.40
2016,12,13,08,32,-0.40
2016,12,13,08,33,-0.40
2016,12,13,08,34,-0.40
2016,12,13,08,35,-0.30
2016,12,13,08,36,-0.30
2016,12,13,08,37,-0.30
2016,12,13,08,38,-0.30
2016,12,13,08,39,-0.30
2016,12,13,08,40,-0.30
2016,12,13,08,41,-0.30
2016,12,13,08,42,-0.30
2016,12,13,08,43,-0.30
2016,12,13,08,44,-0.30
2016,12,13,08,45,-0.30
2016,12,13,08,46,-0.30
2016,12,13,08,47,-0.30
2016,12,13,08,48,-0.30
2016,12,13,08,49,-0.30
2016,12,13,08,50,-0.30
2016,12,13,08,51,-0.30
2016,12,13,08,52,-0.30
2016,12,13,08,53,-0.30
2016,12,13,08,54,-0.40
2016,12,13,08,55,-0.40
2016,12,13,08,56,-0.40
2016,12,13,08,57,-0.40
2016,12,13,08,58,-0.40
2016,12,13,08,59,-0.40
2016,12,13,09,00,-0.40
2016,12,13,09,01,-0.40
2016,12,13,09,02,-0.40
2016,12,13,09,03,-0.40
2016,12,13,09,04,-0.40
2016,12,13,09,05,-0.40
2016,12,13,09,06,-0.40
2016,12,13,09,07,-0.40
2016,12,13,09,08,-0.40
2016,12,13,09,09,-0.40
2016,12,13,09,10,-0.40
2016,12,13,09,11,-0.40
2016,12,13,09,12,-0.40
2016,12,13,09,13,-0.40
2016,12,13,09,14,-0.50
2016,12,13,09,15,-0.50
2016,12,13,09,16,-0.50
2016,12,13,09,17,-0.50
2016,12,13,09,18,-0.50
2016,12,13,09,19,-0.50
2016,12,13,09,20,-0.50
2016,12,13,09,21,-0.50
2016,12,13,09,22,-0.50
2016,12,13,09,23,-0.50
2016,12,13,09,24,-0.50
2016,12,13,09,25,-0.50
2016,12,13,09,26,-0.50
2016,12,13,09,27,-0.50
2016,12,13,09,28,-0.50
2016,12,13,09,29,-0.50
2016,12,13,09,30,-0.50
2016,12,13,09,31,-0.50
2016,12,13,09,32,-0.50
2016,12,13,09,33,-0.50
2016,12,13,09,34,-0.50
2016,12,13,09,35,-0.50
2016,12,13,09,36,-0.50
2016,12,13,09,37,-0.50
2016,12,13,09,38,-0.50
2016,12,13,09,39,-0.50
2016,12,13,09,40,-0.50
2016,12,13,09,41,-0.50
2016,12,13,09,42,-0.50
2016,12,13,09,43,-0.50
2016,12,13,09,44,-0.40
2016,12,13,09,45,-0.40
2016,12,13,09,46,-0.40
2016,12,13,09,47,-0.40
2016,12,13,09,48,-0.40
2016,12,13,09,49,-0.40
2016,12,13,09,50,-0.40
2016,12,13,09,51,-0.40
2016,12,13,09,52,-0.40
2016,12,13,09,53,-0.30
2016,12,13,09,54,-0.30
2016,12,13,09,55,-0.30
2016,12,13,09,56,-0.30
2016,12,13,09,57,-0.30
2016,12,13,09,58,-0.30
2016,12,13,09,59,-0.30
2016,12,13,10,00,-0.30
2016,12,13,10,01,-0.30
2016,12,13,10,02,-0.30
2016,12,13,10,03,-0.20
2016,12,13,10,04,-0.20
2016,12,13,10,05,-0.20
2016,12,13,10,06,-0.20
2016,12,13,10,07,-0.20
2016,12,13,10,08,-0.20
2016,12,13,10,09,-0.20
2016,12,13,10,10,-0.20
2016,12,13,10,11,-0.10
2016,12,13,10,12,-0.10
2016,12,13,10,13,-0.10
2016,12,13,10,14,-0.10
2016,12,13,10,15,-0.10
2016,12,13,10,16,-0.10
2016,12,13,10,17,-0.10
2016,12,13,10,18,-0.10
2016,12,13,10,19,-0.10
2016,12,13,10,20,0.00
2016,12,13,10,21,0.00
2016,12,13,10,22,0.10
2016,12,13,10,23,0.10
2016,12,13,10,24,0.10
2016,12,13,10,25,0.20
2016,12,13,10,26,0.20
2016,12,13,10,27,0.20
2016,12,13,10,28,0.20
2016,12,13,10,29,0.20
2016,12,13,10,30,0.20
2016,12,13,10,31,0.20
2016,12,13,10,32,0.20
2016,12,13,10,33,0.20
2016,12,13,10,34,0.20
2016,12,13,10,35,0.20
2016,12,13,10,36,0.20
2016,12,13,10,37,0.30
2016,12,13,10,38,0.30
2016,12,13,10,39,0.30
2016,12,13,10,40,0.30
2016,12,13,10,41,0.30
2016,12,13,10,42,0.30
2016,12,13,10,43,0.30
2016,12,13,10,44,0.30
2016,12,13,10,45,0.30
2016,12,13,10,46,0.30
2016,12,13,10,47,0.30
2016,12,13,10,48,0.30
2016,12,13,10,49,0.30
2016,12,13,10,50,0.30
2016,12,13,10,51,0.30
2016,12,13,10,52,0.30
2016,12,13,10,53,0.30
2016,12,13,10,54,0.30
2016,12,13,10,55,0.30
2016,12,13,10,56,0.30
2016,12,13,10,57,0.30
2016,12,13,10,58,0.30
2016,12,13,10,59,0.30
2016,12,13,11,00,0.30
2016,12,13,11,01,0.30
2016,12,13,11,02,0.30
2016,12,13,11,03,0.30
2016,12,13,11,04,0.30
2016,12,13,11,05,0.30
2016,12,13,11,06,0.30
2016,12,13,11,07,0.30
2016,12,13,11,08,0.30
2016,12,13,11,09,0.30
2016,12,13,11,10,0.30
2016,12,13,11,11,0.30
2016,12,13,11,12,0.30
2016,12,13,11,13,0.30
2016,12,13,11,14,0.30
2016,12,13,11,15,0.40
2016,12,13,11,16,0.40
2016,12,13,11,17,0.40
2016,12,13,11,18,0.40
2016,12,13,11,19,0.40
2016,12,13,11,20,0.40
2016,12,13,11,21,0.40
2016,12,13,11,22,0.40
2016,12,13,11,23,0.40
2016,12,13,11,24,0.40
2016,12,13,11,25,0.40
2016,12,13,11,26,0.40
2016,12,13,11,27,0.40
2016,12,13,11,28,0.40
2016,12,13,11,29,0.40
2016,12,13,11,30,0.40
2016,12,13,11,31,0.40
2016,12,13,11,32,0.40
2016,12,13,11,33,0.40
2016,12,13,11,34,0.40
2016,12,13,11,35,0.40
2016,12,13,11,36,0.40
2016,12,13,11,37,0.40
2016,12,13,11,38,0.40
2016,12,13,11,39,0.40
2016,12,13,11,40,0.40
2016,12,13,11,41,0.40
2016,12,13,11,42,0.40
2016,12,13,11,43,0.50
2016,12,13,11,44,0.50
2016,12,13,11,45,0.50
2016,12,13,11,46,0.50
2016,12,13,11,47,0.60
2016,12,13,11,48,0.60
2016,12,13,11,49,0.60
2016,12,13,11,50,0.60
2016,12,13,11,51,0.60
2016,12,13,11,52,0.60
2016,12,13,11,53,0.60
2016,12,13,11,54,0.60
2016,12,13,11,55,0.60
2016,12,13,11,56,0.60
2016,12,13,11,57,0.60
2016,12,13,11,58,0.60
2016,12,13,11,59,0.60
2016,12,13,12,00,0.60
2016,12,13,12,01,0.60
2016,12,13,12,02,0.50
2016,12,13,12,03,0.50
2016,12,13,12,04,0.40
2016,12,13,12,05,0.40
2016,12,13,12,06,0.40
2016,12,13,12,07,0.40
2016,12,13,12,08,0.30
2016,12,13,12,09,0.30
2016,12,13,12,10,0.30
2016,12,13,12,11,0.30
2016,12,13,12,12,0.30
2016,12,13,12,13,0.30
2016,12,13,12,14,0.30
2016,12,13,12,15,0.30
2016,12,13,12,16,0.30
2016,12,13,12,17,0.30
2016,12,13,12,18,0.30
2016,12,13,12,19,0.30
2016,12,13,12,20,0.30
2016,12,13,12,21,0.30
2016,12,13,12,22,0.30
2016,12,13,12,23,0.40
2016,12,13,12,24,0.40
2016,12,13,12,25,0.40
2016,12,13,12,26,0.40
2016,12,13,12,27,0.40
2016,12,13,12,28,0.50
2016,12,13,12,29,0.50
2016,12,13,12,30,0.50
2016,12,13,12,31,0.60
2016,12,13,12,32,0.60
2016,12,13,12,33,0.60
2016,12,13,12,34,0.70
2016,12,13,12,35,0.70
2016,12,13,12,36,0.70
2016,12,13,12,37,0.70
2016,12,13,12,38,0.70
2016,12,13,12,39,0.70
2016,12,13,12,40,0.60
2016,12,13,12,41,0.60
2016,12,13,12,42,0.60
2016,12,13,12,43,0.50
2016,12,13,12,44,0.50
2016,12,13,12,45,0.40
2016,12,13,12,46,0.40
2016,12,13,12,47,0.30
2016,12,13,12,48,0.30
2016,12,13,12,49,0.20
2016,12,13,12,50,0.20
2016,12,13,12,51,0.10
2016,12,13,12,52,0.10
2016,12,13,12,53,0.00
2016,12,13,12,54,0.00
2016,12,13,12,55,-0.10
2016,12,13,12,56,-0.10
2016,12,13,12,57,-0.20
2016,12,13,12,58,-0.20
2016,12,13,12,59,-0.20
2016,12,13,13,00,-0.30
2016,12,13,13,01,-0.30
2016,12,13,13,02,-0.30
2016,12,13,13,03,-0.40
2016,12,13,13,04,-0.40
2016,12,13,13,05,-0.50
2016,12,13,13,06,-0.50
2016,12,13,13,07,-0.60
2016,12,13,13,08,-0.60
2016,12,13,13,09,-0.60
2016,12,13,13,10,-0.60
2016,12,13,13,11,-0.60
2016,12,13,13,12,-0.60
2016,12,13,13,13,-0.60
2016,12,13,13,14,-0.70
2016,12,13,13,15,-0.70
2016,12,13,13,16,-0.70
2016,12,13,13,17,-0.70
2016,12,13,13,18,-0.70
2016,12,13,13,19,-0.70
2016,12,13,13,20,-0.70
2016,12,13,13,21,-0.70
2016,12,13,13,22,-0.70
2016,12,13,13,23,-0.70
2016,12,13,13,24,-0.70
2016,12,13,13,25,-0.70
2016,12,13,13,26,-0.70
2016,12,13,13,27,-0.70
2016,12,13,13,28,-0.70
2016,12,13,13,29,-0.70
2016,12,13,13,30,-0.80
2016,12,13,13,31,-0.80
2016,12,13,13,32,-0.80
2016,12,13,13,33,-0.80
2016,12,13,13,34,-0.80
2016,12,13,13,35,-0.80
2016,12,13,13,36,-0.80
2016,12,13,13,37,-0.80
2016,12,13,13,38,-0.80
2016,12,13,13,39,-0.80
2016,12,13,13,40,-0.80
2016,12,13,13,41,-0.80
2016,12,13,13,42,-0.80
2016,12,13,13,43,-0.80
2016,12,13,13,44,-0.70
2016,12,13,13,45,-0.80
2016,12,13,13,46,-0.80
2016,12,13,13,47,-0.80
2016,12,13,13,48,-0.80
2016,12,13,13,49,-0.80
2016,12,13,13,50,-0.80
2016,12,13,13,51,-0.80
2016,12,13,13,52,-0.80
2016,12,13,13,53,-0.80
2016,12,13,13,54,-0.90
2016,12,13,13,55,-0.90
2016,12,13,13,56,-0.90
2016,12,13,13,57,-0.90
2016,12,13,13,58,-0.90
2016,12,13,13,59,-0.90
2016,12,13,14,00,-1.00
2016,12,13,14,01,-0.90
2016,12,13,14,02,-0.90
2016,12,13,14,03,-0.90
2016,12,13,14,04,-0.90
2016,12,13,14,05,-0.90
2016,12,13,14,06,-0.90
2016,12,13,14,07,-0.90
2016,12,13,14,08,-0.90
2016,12,13,14,09,-0.80
2016,12,13,14,10,-0.80
2016,12,13,14,11,-0.80
2016,12,13,14,12,-0.80
2016,12,13,14,13,-0.80
2016,12,13,14,14,-0.80
2016,12,13,14,15,-0.80
2016,12,13,14,16,-0.80
2016,12,13,14,17,-0.80
2016,12,13,14,18,-0.80
2016,12,13,14,19,-0.80
2016,12,13,14,20,-0.80
2016,12,13,14,21,-0.80
2016,12,13,14,22,-0.80
2016,12,13,14,23,-0.80
2016,12,13,14,24,-0.80
2016,12,13,14,25,-0.80
2016,12,13,14,26,-0.80
2016,12,13,14,27,-0.80
2016,12,13,14,28,-0.80
2016,12,13,14,29,-0.80
2016,12,13,14,30,-0.80
2016,12,13,14,31,-0.80
2016,12,13,14,32,-0.80
2016,12,13,14,33,-0.80
2016,12,13,14,34,-0.80
2016,12,13,14,35,-0.80
2016,12,13,14,36,-0.90
2016,12,13,14,37,-0.90
2016,12,13,14,38,-0.90
2016,12,13,14,39,-0.90
2016,12,13,14,40,-0.90
2016,12,13,14,41,-0.80
2016,12,13,14,42,-0.80
2016,12,13,14,43,-0.80
2016,12,13,14,44,-0.80
2016,12,13,14,45,-0.80
2016,12,13,14,46,-0.80
2016,12,13,14,47,-0.80
2016,12,13,14,48,-0.80
2016,12,13,14,49,-0.80
2016,12,13,14,50,-0.90
2016,12,13,14,51,-0.90
2016,12,13,14,52,-0.90
2016,12,13,14,53,-0.90
2016,12,13,14,54,-1.00
2016,12,13,14,55,-1.00
2016,12,13,14,56,-1.00
2016,12,13,14,57,-1.10
2016,12,13,14,58,-1.10
2016,12,13,14,59,-1.10
2016,12,13,15,00,-1.10
2016,12,13,15,01,-1.10
2016,12,13,15,02,-1.10
2016,12,13,15,03,-1.10
2016,12,13,15,04,-1.20
2016,12,13,15,05,-1.20
2016,12,13,15,06,-1.20
2016,12,13,15,07,-1.20
2016,12,13,15,08,-1.20
2016,12,13,15,09,-1.20
2016,12,13,15,10,-1.20
2016,12,13,15,11,-1.20
2016,12,13,15,12,-1.20
2016,12,13,15,13,-1.20
2016,12,13,15,14,-1.20
2016,12,13,15,15,-1.20
2016,12,13,15,16,-1.20
2016,12,13,15,17,-1.20
2016,12,13,15,18,-1.20
2016,12,13,15,19,-1.20
2016,12,13,15,20,-1.20
2016,12,13,15,21,-1.20
2016,12,13,15,22,-1.20
2016,12,13,15,23,-1.20
2016,12,13,15,24,-1.10
2016,12,13,15,25,-1.10
2016,12,13,15,26,-1.10
2016,12,13,15,27,-1.10
2016,12,13,15,28,-1.10
2016,12,13,15,29,-1.10
2016,12,13,15,30,-1.10
2016,12,13,15,31,-1.10
2016,12,13,15,32,-1.00
2016,12,13,15,33,-1.00
2016,12,13,15,34,-1.00
2016,12,13,15,35,-1.00
2016,12,13,15,36,-1.00
2016,12,13,15,37,-1.00
2016,12,13,15,38,-1.00
2016,12,13,15,39,-1.00
2016,12,13,15,40,-1.00
2016,12,13,15,41,-1.00
2016,12,13,15,42,-1.10
2016,12,13,15,43,-1.10
2016,12,13,15,44,-1.10
2016,12,13,15,45,-1.20
2016,12,13,15,46,-1.20
2016,12,13,15,47,-1.20
2016,12,13,15,48,-1.30
2016,12,13,15,49,-1.30
2016,12,13,15,50,-1.30
2016,12,13,15,51,-1.30
2016,12,13,15,52,-1.30
2016,12,13,15,53,-1.30
2016,12,13,15,54,-1.30
2016,12,13,15,55,-1.40
2016,12,13,15,56,-1.40
2016,12,13,15,57,-1.40
2016,12,13,15,58,-1.40
2016,12,13,15,59,-1.40
2016,12,13,16,00,-1.40
2016,12,13,16,01,-1.40
2016,12,13,16,02,-1.50
2016,12,13,16,03,-1.50
2016,12,13,16,04,-1.50
2016,12,13,16,05,-1.60
2016,12,13,16,06,-1.60
2016,12,13,16,07,-1.60
2016,12,13,16,08,-1.60
2016,12,13,16,09,-1.70
2016,12,13,16,10,-1.70
2016,12,13,16,11,-1.70
2016,12,13,16,12,-1.70
2016,12,13,16,13,-1.70
2016,12,13,16,14,-1.70
2016,12,13,16,15,-1.80
2016,12,13,16,16,-1.80
2016,12,13,16,17,-1.80
2016,12,13,16,18,-1.80
2016,12,13,16,19,-1.80
2016,12,13,16,20,-1.80
2016,12,13,16,21,-1.80
2016,12,13,16,22,-1.70
2016,12,13,16,23,-1.70
2016,12,13,16,24,-1.60
2016,12,13,16,25,-1.50
2016,12,13,16,26,-1.50
2016,12,13,16,27,-1.40
2016,12,13,16,28,-1.40
2016,12,13,16,29,-1.30
2016,12,13,16,30,-1.30
2016,12,13,16,31,-1.20
2016,12,13,16,32,-1.20
2016,12,13,16,33,-1.10
2016,12,13,16,34,-1.10
2016,12,13,16,35,-1.00
2016,12,13,16,36,-1.00
2016,12,13,16,37,-0.90
2016,12,13,16,38,-1.00
2016,12,13,16,39,-1.00
2016,12,13,16,40,-1.00
2016,12,13,16,41,-1.00
2016,12,13,16,42,-1.00
2016,12,13,16,43,-1.00
2016,12,13,16,44,-1.00
2016,12,13,16,45,-1.00
2016,12,13,16,46,-0.90
2016,12,13,16,47,-0.90
2016,12,13,16,48,-0.90
2016,12,13,16,49,-0.90
2016,12,13,16,50,-0.90
2016,12,13,16,51,-1.00
2016,12,13,16,52,-1.00
2016,12,13,16,53,-1.00
2016,12,13,16,54,-1.00
2016,12,13,16,55,-1.00
2016,12,13,16,56,-1.00
2016,12,13,16,57,-0.90
2016,12,13,16,58,-0.90
2016,12,13,16,59,-0.90
2016,12,13,17,00,-0.90
2016,12,13,17,01,-0.90
2016,12,13,17,02,-1.00
2016,12,13,17,03,-1.00
2016,12,13,17,04,-1.00
2016,12,13,17,05,-1.10
2016,12,13,17,06,-1.10
2016,12,13,17,07,-1.10
2016,12,13,17,08,-1.10
2016,12,13,17,09,-1.10
2016,12,13,17,10,-1.10
2016,12,13,17,11,-1.10
2016,12,13,17,12,-1.10
2016,12,13,17,13,-1.10
2016,12,13,17,14,-1.10
2016,12,13,17,15,-1.10
2016,12,13,17,16,-1.10
2016,12,13,17,17,-1.10
2016,12,13,17,18,-1.00
2016,12,13,17,19,-1.00
2016,12,13,17,20,-1.00
2016,12,13,17,21,-1.00
2016,12,13,17,22,-1.00
2016,12,13,17,23,-1.00
2016,12,13,17,24,-1.00
2016,12,13,17,25,-1.10
2016,12,13,17,26,-1.10